TimeMST,TemperatureF,Dew PointF,Humidity,Sea Level PressureIn,VisibilityMPH,Wind Direction,Wind SpeedMPH,Gust SpeedMPH,PrecipitationIn,Events,Conditions,WindDirDegrees,DateUTC
12:51 AM,28.0,21.9,78,30.31,6.0,North,8.1,-,N/A,,Haze,10,2013-02-14 07:51:00
2:51 AM,28.0,23.0,81,30.31,6.0,Calm,Calm,-,N/A,,Haze,0,2013-02-14 09:51:00
3:51 AM,27.0,23.0,85,30.30,5.0,Calm,Calm,-,N/A,,Overcast,0,2013-02-14 10:51:00
4:51 AM,28.0,23.0,81,30.31,4.0,NNE,5.8,-,N/A,,Haze,20,2013-02-14 11:51:00
5:51 AM,30.9,21.9,69,30.34,7.0,North,3.5,-,N/A,,Overcast,360,2013-02-14 12:51:00
6:51 AM,30.0,21.9,72,30.35,6.0,Calm,Calm,-,N/A,,Haze,0,2013-02-14 13:51:00
7:51 AM,27.0,23.0,85,30.38,3.0,Calm,Calm,-,N/A,,Overcast,0,2013-02-14 14:51:00
8:07 AM,26.6,21.2,80,30.30,2.5,Calm,Calm,-,N/A,,Mostly Cloudy,0,2013-02-14 15:07:00
8:14 AM,24.8,19.4,80,30.31,3.0,Calm,Calm,-,N/A,,Partly Cloudy,0,2013-02-14 15:14:00
8:21 AM,24.8,21.2,86,30.31,2.5,Calm,Calm,-,N/A,,Partly Cloudy,0,2013-02-14 15:21:00
8:51 AM,26.1,21.9,84,30.41,2.5,Calm,Calm,-,N/A,,Clear,0,2013-02-14 15:51:00
9:08 AM,24.8,21.2,86,30.34,1.8,North,3.5,-,N/A,,Clear,10,2013-02-14 16:08:00
10:00 AM,21.2,19.4,93,30.35,2.0,Calm,Calm,-,N/A,,Partly Cloudy,0,2013-02-14 17:00:00
10:07 AM,24.8,19.4,80,30.36,1.8,Calm,Calm,-,N/A,,Haze,0,2013-02-14 17:07:00
10:51 AM,25.0,21.0,85,30.46,1.8,Calm,Calm,-,N/A,,Scattered Clouds,0,2013-02-14 17:51:00
11:51 AM,28.9,23.0,78,30.45,1.5,NNW,4.6,-,N/A,,Haze,330,2013-02-14 18:51:00
12:51 PM,30.9,24.1,76,30.43,1.8,Calm,Calm,-,N/A,,Haze,0,2013-02-14 19:51:00
1:12 PM,32.0,24.8,75,30.36,2.0,Calm,Calm,-,N/A,,Haze,0,2013-02-14 20:12:00
1:35 PM,32.0,24.8,75,30.36,1.8,North,4.6,-,N/A,,Haze,350,2013-02-14 20:35:00
1:41 PM,32.0,24.8,75,30.36,2.0,North,3.5,-,N/A,,Haze,350,2013-02-14 20:41:00
1:51 PM,33.1,25.0,72,30.42,2.0,NW,3.5,-,N/A,,Haze,310,2013-02-14 20:51:00
2:51 PM,34.0,26.1,73,30.43,2.5,North,3.5,-,N/A,,Haze,350,2013-02-14 21:51:00
3:51 PM,30.9,25.0,79,30.44,2.5,Calm,Calm,-,N/A,,Haze,0,2013-02-14 22:51:00
4:14 PM,30.2,24.8,80,30.36,3.0,Calm,Calm,-,N/A,,Haze,0,2013-02-14 23:14:00
4:42 PM,30.2,24.8,80,30.36,2.5,Calm,Calm,-,N/A,,Haze,0,2013-02-14 23:42:00
4:48 PM,30.2,24.8,80,30.37,3.0,WSW,5.8,-,N/A,,Haze,250,2013-02-14 23:48:00
4:51 PM,30.0,24.1,79,30.44,3.0,West,3.5,-,N/A,,Haze,260,2013-02-14 23:51:00
4:58 PM,30.2,24.8,80,30.37,2.5,WSW,5.8,-,N/A,,Haze,250,2013-02-14 23:58:00
5:51 PM,28.9,23.0,78,30.43,2.0,ENE,4.6,-,N/A,,Haze,60,2013-02-15 00:51:00
6:17 PM,28.4,24.8,86,30.37,3.0,Calm,Calm,-,N/A,,Haze,0,2013-02-15 01:17:00
6:51 PM,30.0,23.0,75,30.44,3.0,Calm,Calm,-,N/A,,Haze,0,2013-02-15 01:51:00
7:51 PM,28.9,23.0,78,30.45,3.0,Calm,Calm,-,N/A,,Haze,0,2013-02-15 02:51:00
8:51 PM,25.0,21.9,88,30.48,3.0,Calm,Calm,-,N/A,,Scattered Clouds,0,2013-02-15 03:51:00
9:51 PM,24.1,19.9,84,30.51,3.0,Calm,Calm,-,N/A,,Overcast,0,2013-02-15 04:51:00
10:04 PM,21.2,17.6,86,30.40,2.5,Calm,Calm,-,N/A,,Overcast,0,2013-02-15 05:04:00
10:27 PM,21.2,19.4,93,30.41,1.8,Calm,Calm,-,N/A,,Mostly Cloudy,0,2013-02-15 05:27:00
10:35 PM,21.2,17.6,86,30.40,2.0,Calm,Calm,-,N/A,,Mostly Cloudy,0,2013-02-15 05:35:00
10:51 PM,23.0,21.0,92,30.51,2.5,Calm,Calm,-,N/A,,Overcast,0,2013-02-15 05:51:00
11:51 PM,19.0,17.1,92,30.52,1.5,WSW,3.5,-,N/A,,Overcast,250,2013-02-15 06:51:00